Flag for Australia Weather past 2 weeks in Sydney, New South Wales, Australia

Now
84 °F

Sunny.


Feels Like: 83 °F
Forecast: 67 / 69 °F
Wind: 7 mph from Northwest

Location: Sydney Airport

Current Time: Apr 2, 2015 at 3:06:36 PM

Latest Report: Apr 2, 2015 at 2:00 PM


Visibility: 10 mi

Pressure: 30.01 "Hg

Humidity: 40%

Dew point: 57 °F

Location of SydneyLocation

Historic Weather in Sydney — Graph

°F

Sydney temperature yesterday

Maximum temperature yesterday: 81 °F (at 4:00 PM)
Minimum temperature yesterday: 64 °F (at 1:00 AM)
Average temperature yesterday: 72 °F

Past Weeks' High & Low Weather Summary

 TemperatureHumidityPressure
High84 °F (Mar 20, 10:30 AM)100% (Mar 24, 7:30 PM)30.30 "Hg (Mar 24, 7:30 PM)
Low57 °F (Mar 27, 7:00 AM)18% (Mar 27, 4:00 PM)29.59 "Hg (Mar 18, 4:00 PM)
Average71 °F68%30.06 "Hg
* Reported Mar 18 1:00 PM — Apr 2 1:30 PM, Sydney, Weather by CustomWeather, © 2015

Note: Actual official high and low records may vary slightly from our data, if they occured in-between our weather recording intervals... More about our weather records

Advertising

Sydney weather history for previous 24 hours

 ConditionsComfort  
Time TempWeatherWind HumidityBarometerVisibility
1:30 PM
Thu, Apr 2
82 °FSunny.8 mph42%30.01 "Hg10 mi
1:00 PM84 °FSunny.6 mph40%30.04 "Hg10 mi
12:30 PM82 °FPartly sunny.7 mph45%30.04 "HgN/A
12:00 PM81 °FPartly sunny.8 mph51%30.04 "HgN/A
11:30 AM79 °FPartly sunny.8 mph54%30.07 "HgN/A
11:00 AM79 °FSunny.8 mph58%30.07 "Hg10 mi
10:30 AM75 °FSunny.9 mph65%30.07 "Hg10 mi
10:00 AM73 °FSunny.8 mph69%30.07 "Hg10 mi
9:30 AM72 °FSunny.7 mph73%30.07 "Hg10 mi
9:00 AM70 °FSunny.8 mph78%30.07 "Hg10 mi
8:30 AM70 °FSunny.7 mph78%30.07 "Hg10 mi
8:00 AM70 °FSunny.8 mph78%30.07 "Hg10 mi
7:30 AM70 °FSunny.7 mph78%30.07 "Hg10 mi
7:00 AM68 °FClear.7 mph78%30.04 "Hg10 mi
6:30 AM70 °FClear.9 mph73%30.04 "Hg10 mi
6:00 AM68 °FClear.6 mph78%30.04 "Hg10 mi
5:30 AM68 °FClear.5 mph78%30.04 "Hg10 mi
5:00 AM68 °FClear.6 mph83%30.04 "Hg10 mi
4:00 AM68 °FClear.5 mph83%30.04 "Hg10 mi
3:30 AM68 °FClear.3 mph83%30.04 "Hg10 mi
3:00 AM68 °FClear.6 mph83%30.07 "Hg10 mi
2:30 AM68 °FClear.5 mph83%30.07 "Hg10 mi
2:00 AM70 °FClear.7 mph78%30.07 "Hg10 mi
1:30 AM70 °FClear.6 mph78%30.09 "Hg10 mi
1:00 AM72 °FClear.6 mph73%30.09 "Hg10 mi
12:30 AM70 °FClear.6 mph83%30.09 "Hg10 mi
12:00 AM72 °FClear.7 mph78%30.12 "Hg10 mi
11:30 PM
Wed, Apr 1
73 °FClear.6 mph74%30.12 "Hg10 mi
11:00 PM73 °FClear.10 mph69%30.12 "Hg10 mi
10:30 PM73 °FClear.13 mph74%30.12 "Hg10 mi
10:00 PM75 °FClear.15 mph69%30.12 "Hg10 mi
9:30 PM75 °FClear.15 mph69%30.12 "Hg10 mi
9:00 PM75 °FClear.16 mph69%30.12 "Hg10 mi
8:30 PM75 °FClear.16 mph69%30.12 "Hg10 mi
8:00 PM75 °FClear.15 mph69%30.09 "Hg10 mi
7:30 PM75 °FClear.15 mph69%30.09 "Hg10 mi
7:00 PM75 °FClear.16 mph69%30.09 "Hg10 mi
6:30 PM77 °FPartly sunny.16 mph65%30.09 "HgN/A
6:00 PM77 °FPassing clouds.18 mph61%30.09 "HgN/A
5:30 PM79 °FPassing clouds.14 mph58%30.09 "HgN/A
5:00 PM79 °FPassing clouds.17 mph54%30.09 "HgN/A
4:30 PM79 °FPassing clouds.17 mph58%30.09 "HgN/A
4:00 PM81 °FPassing clouds.13 mph54%30.09 "HgN/A
3:30 PM77 °FScattered clouds.13 mph65%30.12 "HgN/A
3:00 PM75 °FScattered showers. Scattered clouds.13 mph65%30.12 "HgN/A
Weather by CustomWeather, © 2015

See weather overviewHow to use our weather pages